Grand Junction, CO

4:57 AM MDT on March 27, 2017 (GMT -0600)
Walker

Weather History for KGJT - March, 2013

Change the Weather History Date:

Thursday, March 7, 2013

  Actual Average Record
Temperature  
Mean Temperature 49 °F 42 °F  
Max Temperature 66 °F 54 °F 70 °F (1910)
Min Temperature 31 °F 30 °F 12 °F (1971)
Degree Days  
Heating Degree Days 16 23  
Month to date heating degree days 165 169  
Since 1 July heating degree days 4928 4548  
Cooling Degree Days 0 0  
Month to date cooling degree days 0 0  
Year to date cooling degree days 0 0  
Moisture  
Dew Point 16 °F    
Average Humidity 37    
Maximum Humidity 63    
Minimum Humidity 10    
Precipitation  
Precipitation 0.00 in 0.03 in 0.27 in (2016)
Month to date precipitation 0.05 0.18  
Year to date precipitation 1.05 1.30  
Snow  
Snow 0.00 in 0.10 in 1.20 in (2009)
Month to date snowfall 0.0 0.6  
Since 1 July snowfall 20.0 16.1  
Snow Depth 0.00 in    
Sea Level Pressure  
Sea Level Pressure 29.81 in    
Wind  
Wind Speed 9 mph (SE)    
Max Wind Speed 22 mph    
Max Gust Speed 28 mph    
Visibility 10 miles    
Events      
T = Trace of Precipitation, MM = Missing Value Source: NWS Daily Summary

Daily Weather History Graph

Daily Weather History Graph

Search for Another Location

Airport or City:

Trip Planner

Search our weather history database for the weather conditions in past years. The results will help you decide how hot, cold, wet, or windy it might be!

Date:

Astronomy

Mar. 07, 2013 Rise Set
Actual Time 6:37 AM MST 6:13 PM MST
Civil Twilight 6:10 AM MST 6:40 PM MST
Nautical Twilight 5:39 AM MST 7:11 PM MST
Astronomical Twilight 5:08 AM MST 7:42 PM MST
Moon 3:37 AM MST (3/7) 2:06 PM MST (3/7)
Length of Visible Light 12h 29m
Length of Day
11h 36m
Waning Crescent, 19% of the Moon is Illuminated
Mar 7
Waning Crescent
Mar 11
New
Mar 19
First Quarter
Mar 27
Full
Apr 2
Last Quarter

Hourly Weather History & Observations

Time (MST) Temp. Windchill Dew Point Humidity Pressure Visibility Wind Dir Wind Speed Gust Speed Precip Events Conditions
12:53 AM 46.0 °F 41.9 °F 19.9 °F 35% 29.79 in 10.0 mi ESE 8.1 mph - N/A   Clear
1:53 AM 43.0 °F - 19.9 °F 40% 29.78 in 10.0 mi Calm Calm - N/A   Clear
2:53 AM 39.0 °F 33.4 °F 21.9 °F 50% 29.80 in 10.0 mi North 8.1 mph - N/A   Clear
3:53 AM 37.9 °F 35.5 °F 21.0 °F 51% 29.82 in 10.0 mi ENE 3.5 mph - N/A   Clear
4:53 AM 37.0 °F 34.5 °F 21.0 °F 52% 29.85 in 10.0 mi East 3.5 mph - N/A   Clear
5:53 AM 37.0 °F 31.0 °F 21.0 °F 52% 29.87 in 10.0 mi ENE 8.1 mph - N/A   Clear
6:53 AM 32.0 °F - 21.9 °F 66% 29.93 in 10.0 mi Calm Calm - N/A   Clear
7:53 AM 39.9 °F 35.1 °F 24.1 °F 53% 29.93 in 10.0 mi East 6.9 mph - N/A   Clear
8:53 AM 51.1 °F - 21.9 °F 32% 29.91 in 10.0 mi SE 6.9 mph - N/A   Clear
9:53 AM 55.9 °F - 21.0 °F 26% 29.88 in 10.0 mi SE 11.5 mph - N/A   Clear
10:53 AM 59.0 °F - 17.1 °F 20% 29.86 in 10.0 mi South 12.7 mph - N/A   Clear
11:53 AM 61.0 °F - 14.0 °F 16% 29.85 in 10.0 mi WSW 13.8 mph 18.4 mph N/A   Clear
12:53 PM 63.0 °F - 14.0 °F 15% 29.80 in 10.0 mi SSE 5.8 mph - N/A   Clear
1:53 PM 64.0 °F - 12.9 °F 14% 29.77 in 10.0 mi West 12.7 mph 17.3 mph N/A   Clear
2:53 PM 64.9 °F - 9.0 °F 11% 29.76 in 10.0 mi SW 11.5 mph 20.7 mph N/A   Clear
3:53 PM 64.0 °F - 6.1 °F 10% 29.76 in 10.0 mi South 11.5 mph 17.3 mph N/A   Clear
4:53 PM 63.0 °F - 8.1 °F 11% 29.76 in 10.0 mi South 19.6 mph - N/A   Clear
5:53 PM 60.1 °F - 10.0 °F 14% 29.78 in 10.0 mi South 11.5 mph 20.7 mph N/A   Clear
6:53 PM 59.0 °F - 10.9 °F 15% 29.80 in 10.0 mi Calm Calm - N/A   Clear
7:53 PM 53.1 °F - 12.9 °F 20% 29.79 in 10.0 mi SSE 5.8 mph - N/A   Clear
8:53 PM 45.0 °F 40.6 °F 14.0 °F 29% 29.78 in 10.0 mi East 8.1 mph - N/A   Clear
9:53 PM 46.9 °F - 15.1 °F 28% 29.76 in 10.0 mi ESE 12.7 mph - N/A   Clear
10:53 PM 46.0 °F 40.2 °F 16.0 °F 30% 29.76 in 10.0 mi ESE 12.7 mph - N/A   Clear
11:53 PM 46.9 °F - 18.0 °F 32% 29.75 in 10.0 mi East 13.8 mph - N/A   Clear